This demonstration page uses our WeatherBlox Daily Observations layout. Learn more.

Hourly Observations for February 17, 2020

Temp ( °F °C ) Dew Point ( °F °C ) Humidity (%) Winds ( mph kmh ) Pressure ( in mb ) Visibility ( mi km ) Precip ( " mm )
12:15 am 00:15 Cloudy 43 6.1 33 0.3 67 67 SSW 9 15 29.87 1011 10 16.0934 0 0
12:35 am 00:35 Cloudy 43 5.9 33 0.5 69 69 SSW 6 9 29.86 1011 10 16.0934 0 0
12:55 am 00:55 Cloudy 41 5.2 32 0 69 69 SSW 6 9 29.87 1011 10 16.0934 0 0
1:15 am 01:15 Cloudy 42 5.3 33 0.3 70 70 SW 8 13 29.87 1012 10 16.0934 0 0
1:35 am 01:35 Cloudy with Rain 41 5 33 0.3 72 72 SSW 9 15 29.87 1011 10 16.0934 0 0
1:55 am 01:55 Cloudy 40 4.6 34 0.9 77 77 SW 5 7 29.87 1012 10 16.0934 0 0
2:15 am 02:15 Cloudy 42 5.3 34 0.9 74 74 SSW 9 15 29.85 1011 10 16.0934 0 0
2:35 am 02:35 Cloudy 42 5.4 33 0.7 72 72 S 8 13 29.83 1010 10 16.0934 0 0
2:55 am 02:55 Cloudy with Light Rain 41 5.1 33 0.7 74 74 SSW 7 11 29.84 1010 10 16.0934 0 0
3:15 am 03:15 Cloudy 41 5.2 34 1.3 76 76 S 3 6 29.82 1010 10 16.0934 0 0
3:35 am 03:35 Mostly Cloudy 41 4.8 34 1.1 77 77 SSW 7 11 29.82 1010 10 16.0934 0 0
3:55 am 03:55 Partly Cloudy 40 4.5 33 0.8 77 77 S 7 11 29.81 1010 10 16.0934 0 0
4:15 am 04:15 Clear 39 4 34 1 81 81 SSW 8 13 29.82 1010 10 16.0934 0 0
4:35 am 04:35 Partly Cloudy 39 4.1 34 1.2 82 82 SSW 9 15 29.83 1010 10 16.0934 0 0
4:55 am 04:55 Mostly Cloudy 40 4.3 34 1 79 79 SSW 6 9 29.82 1010 10 16.0934 0 0
5:15 am 05:15 Partly Cloudy 39 3.7 33 0.7 81 81 S 10 17 29.82 1010 10 16.0934 0 0
5:35 am 05:35 Partly Cloudy 38 3.4 33 0.6 82 82 SSW 8 13 29.81 1010 10 16.0934 0 0
5:55 am 05:55 Partly Cloudy 38 3.5 33 0.7 82 82 SSW 8 13 29.82 1010 10 16.0934 0 0
6:15 am 06:15 Mostly Cloudy 38 3.5 33 0.7 82 82 SW 6 9 29.81 1010 10 16.0934 0 0
6:35 am 06:35 Mostly Cloudy 39 3.8 33 0.8 81 81 SW 7 11 29.81 1009 10 16.0934 0 0
6:55 am 06:55 Partly Cloudy 39 3.8 33 0.6 80 80 WSW 7 11 29.82 1010 10 16.0934 0 0
7:15 am 07:15 Clear 38 3.2 32 0 80 80 WSW 8 13 29.82 1010 10 16.0934 0 0
7:35 am 07:35 Sunny 41 4.9 32 0 71 71 WSW 13 20 29.82 1010 10 16.0934 0 0
7:55 am 07:55 Sunny 40 4.5 32 -0.1 72 72 W 13 20 29.82 1010 10 16.0934 0 0
8:15 am 08:15 Sunny 40 4.5 31 -0.3 71 71 W 13 20 29.82 1010 10 16.0934 0 0
8:35 am 08:35 Sunny 40 4.2 31 -0.6 71 71 W 13 20 29.83 1010 10 16.0934 0 0
8:55 am 08:55 Sunny 41 5.1 31 -0.8 66 66 W 15 24 29.84 1010 10 16.0934 0 0
9:15 am 09:15 Sunny 43 5.9 30 -0.9 62 62 W 17 28 29.84 1010 10 16.0934 0 0
9:35 am 09:35 Sunny 44 6.5 30 -0.9 60 60 W 20 31 29.83 1010 10 16.0934 0 0
9:55 am 09:55 Sunny 45 7 31 -0.5 59 59 WNW 18 30 29.85 1011 10 16.0934 0 0
10:15 am 10:15 Sunny 45 7 30 -1.3 56 56 NW 17 28 29.87 1011 10 16.0934 0 0
10:35 am 10:35 Sunny 44 6.7 29 -1.9 55 55 NW 20 31 29.87 1012 10 16.0934 0 0
10:55 am 10:55 Sunny 46 7.5 27 -2.8 48 48 N 16 26 29.87 1011 10 16.0934 0 0
11:15 am 11:15 Sunny 46 8 28 -2.3 49 49 NNW 18 30 29.87 1012 10 16.0934 0 0
11:35 am 11:35 Sunny 48 8.7 29 -1.9 48 48 NNW 20 31 29.88 1012 10 16.0934 0 0
11:55 am 11:55 Sunny 48 9 29 -1.4 48 48 NNW 18 30 29.9 1013 10 16.0934 0 0
12:15 pm 12:15 Sunny 47 8.5 29 -1.4 50 50 NW 21 33 29.91 1013 10 16.0934 0 0
12:35 pm 12:35 Partly Cloudy 48 8.8 31 -0.5 52 52 NNW 17 28 29.91 1013 10 16.0934 0 0
12:55 pm 12:55 Partly Cloudy 47 8.1 31 -0.8 54 54 NNW 17 28 29.91 1013 10 16.0934 0 0
1:15 pm 13:15 Partly Cloudy 47 8.2 31 -0.7 54 54 NNW 17 28 29.92 1013 10 16.0934 0 0
1:35 pm 13:35 Partly Cloudy 46 8 31 -0.4 56 56 NNW 21 33 29.91 1013 10 16.0934 0 0
1:55 pm 13:55 Sunny 46 7.5 31 -0.5 57 57 N 21 33 29.91 1013 10 16.0934 0 0
2:15 pm 14:15 Sunny 46 7.6 31 -0.6 56 56 NNW 20 31 29.91 1013 10 16.0934 0 0
2:35 pm 14:35 Sunny 46 7.7 31 -0.3 57 57 NNW 20 31 29.92 1013 10 16.0934 0 0
2:55 pm 14:55 Sunny 46 7.7 31 -0.7 56 56 N 16 26 29.92 1013 10 16.0934 0 0
3:15 pm 15:15 Sunny 46 7.8 29 -1.4 53 53 NNW 23 37 29.92 1013 10 16.0934 0 0
3:35 pm 15:35 Sunny 46 7.6 28 -2 51 51 N 17 28 29.92 1013 10 16.0934 0 0
3:55 pm 15:55 Sunny 45 7.2 28 -2.4 51 51 N 22 35 29.93 1013 10 16.0934 0 0
4:15 pm 16:15 Sunny 46 7.6 28 -2.4 50 50 N 21 33 29.93 1014 10 16.0934 0 0
4:35 pm 16:35 Sunny 45 7.3 28 -2.5 50 50 N 21 33 29.94 1014 10 16.0934 0 0
4:55 pm 16:55 Sunny 44 6.5 28 -2 55 55 N 21 33 29.96 1015 10 16.0934 0 0
5:15 pm 17:15 Sunny 42 5.5 27 -2.6 56 56 N 18 30 29.97 1015 10 16.0934 0 0
5:35 pm 17:35 Sunny 39 4.1 26 -3.5 58 58 N 16 26 30.02 1016 10 16.0934 0 0
5:55 pm 17:55 Partly Cloudy 38 3.6 27 -2.7 64 64 N 15 24 30.03 1017 10 16.0934 0 0
6:15 pm 18:15 Partly Cloudy 36 2.1 26 -3.4 67 67 N 12 19 30.06 1018 10 16.0934 0 0
6:35 pm 18:35 Clear 35 1.4 26 -3.5 70 70 N 9 15 30.08 1019 10 16.0934 0 0
6:55 pm 18:55 Clear 34 1 26 -3.5 72 72 N 9 15 30.11 1019 10 16.0934 0 0
7:15 pm 19:15 Partly Cloudy 33 0.5 26 -3.4 75 75 N 13 20 30.14 1021 10 16.0934 0 0
7:35 pm 19:35 Partly Cloudy 32 0.2 26 -3.3 78 78 N 15 24 30.15 1021 10 16.0934 0 0
7:55 pm 19:55 Mostly Cloudy 32 0.1 26 -3.1 79 79 N 10 17 30.16 1021 10 16.0934 0 0
8:15 pm 20:15 Cloudy 32 0 26 -3.2 79 79 N 13 20 30.18 1022 10 16.0934 0 0
8:35 pm 20:35 Cloudy 32 0 26 -3.1 80 80 N 14 22 30.19 1022 10 16.0934 0 0
8:55 pm 20:55 Cloudy 32 0 27 -3 80 80 N 15 24 30.2 1023 10 16.0934 0 0
9:15 pm 21:15 Mostly Cloudy 32 -0.2 26 -3.3 80 80 N 9 15 30.21 1023 10 16.0934 0 0
9:35 pm 21:35 Partly Cloudy 31 -0.7 26 -3.5 82 82 NNW 7 11 30.23 1024 10 16.0934 0 0
9:55 pm 21:55 Partly Cloudy 30 -1 25 -3.8 82 82 NNW 5 7 30.23 1024 10 16.0934 0 0
10:15 pm 22:15 Clear 29 -1.7 24 -4.2 83 83 N 3 6 30.25 1024 10 16.0934 0 0
10:35 pm 22:35 Partly Cloudy 28 -2.2 25 -4 88 88 N 7 11 30.27 1025 10 16.0934 0 0
10:55 pm 22:55 Partly Cloudy 29 -1.6 25 -3.9 85 85 N 7 11 30.27 1025 10 16.0934 0 0
11:15 pm 23:15 Clear 29 -1.5 25 -4 83 83 N 8 13 30.27 1025 10 16.0934 0 0
11:35 pm 23:35 Clear 29 -1.6 25 -4 84 84 N 9 15 30.28 1025 10 16.0934 0 0
11:55 pm 23:55 Clear 29 -1.8 25 -4.1 84 84 N 12 19 30.29 1026 10 16.0934 0 0

Powered by AerisWeather